{"data":{"norad_id":52359,"intl_designator":"2022-045AE","name":"STARLINK-3853","alt_names":[],"object_type":"PAYLOAD","status":"ACTIVE","operator":null,"country":"US","launch_date":"2022-04-29","launch_site_code":"AFETR","launch_vehicle":null,"mission":null,"orbit_class":"UNKNOWN","rcs_meters":null,"size_class":null,"mass_kg":null,"dimensions":null,"purposes":["comms"],"wikipedia_slug":null,"has_3d_model":false,"image_url":null,"decayed_at":null,"tle_current":{"epoch":"2026-09-20T00:04:34.491072Z","epoch_age_seconds":102607,"freshness":"FRESH","line1":"1 52359U 22045AE  26263.00317698 -.00000973  00000+0 -19586-4 0  9993","line2":"2 52359  53.1618  36.1055 0001695  48.5156 311.5991 15.31693416245267","mean_motion":15.31693416,"eccentricity":0.0001695,"inclination_deg":53.1618,"raan_deg":36.1055,"arg_perigee_deg":48.5156,"mean_anomaly_deg":311.5991,"bstar":-1.9586e-5,"rev_number":24526,"period_min":94.01359207775,"perigee_km":469.59873387994,"apogee_km":471.92050983475,"semimajor_km":6848.8966218573,"source":"CELESTRAK","updated_at":"2026-09-20T09:00:40.026255Z"}}}